Location: San Martino di Castrozza
(46.2667°N, 11.8000°E)
Time: 14:59:28
(UTC+00:00)

Cosmos 2221 Rocket - Pass Details

Date: 23 April 2021
Orbit: 621 x 647 km, 82.5° (Epoch: 12 May)

Event Time Altitude Azimuth Distance (km) Brightness Sun altitude
Exits shadow 02:51:51 20° 227° (SW) 1,482 4.9 -13.2°
Maximum altitude 02:54:31 39° 285° (WNW) 971 4.2 -12.8°
Drops below altitude 10° 02:58:47 10° 355° (N) 2,053 6.6 -12.2°
Sets 03:01:11 0° 3° (N) 2,970 7.6 -11.8°
